Change the Weather History Date:

Tuesday, January 29, 2013

  Actual Average Record
Temperature  
Mean Temperature 49 °F -  
Max Temperature 52 °F 59 °F 69 °F (2001)
Min Temperature 46 °F 46 °F 37 °F (2007)
Degree Days  
Heating Degree Days 16    
Moisture  
Dew Point 44 °F    
Average Humidity 79    
Maximum Humidity 100    
Minimum Humidity 53    
Precipitation  
Precipitation 0.35 in 0.15 in - ()
Sea Level Pressure  
Sea Level Pressure 30.00 in    
Wind  
Wind Speed 6 mph ()    
Max Wind Speed 14 mph    
Max Gust Speed -    
Visibility 5.5 miles    
Events Rain    
Averages and records for this station are not official NWS values.
T = Trace of Precipitation, MM = Missing Value Source: Averaged Metar Reports

Daily Weather History Graph

Daily Weather History Graph

Search for Another Location

Airport or City:

Trip Planner

Search our weather history database for the weather conditions in past years. The results will help you decide how hot, cold, wet, or windy it might be!

Date:

Astronomy

Jan. 29, 2013 Rise Set
Actual Time 7:25 AM EET 5:48 PM EET
Civil Twilight 6:58 AM EET 6:15 PM EET
Nautical Twilight 6:27 AM EET 6:45 PM EET
Astronomical Twilight 5:57 AM EET 7:15 PM EET
Moon 8:17 PM EET (1/29) 8:19 AM EET (1/29)
Length of Visible Light 11h 16m
Length of Day
10h 22m
Waning Gibbous, 95% of the Moon is Illuminated
Jan 29
Waning Gibbous
Feb 3
Last Quarter
Feb 10
New
Feb 17
First Quarter
Feb 25
Full

Hourly Weather History & Observations

Time (EET) Temp. Dew Point Humidity Pressure Visibility Wind Dir Wind Speed Gust Speed Precip Events Conditions
12:20 AM 51.8 °F 39.2 °F 62% 29.98 in 6.2 mi West 11.5 mph - N/A   Mostly Cloudy
12:50 AM 51.8 °F 39.2 °F 62% 29.98 in 6.2 mi WSW 11.5 mph - N/A   Mostly Cloudy
1:20 AM 51.8 °F 39.2 °F 62% 29.98 in 6.2 mi WSW 11.5 mph - N/A   Mostly Cloudy
1:50 AM 51.8 °F 39.2 °F 62% 29.98 in 6.2 mi WSW 9.2 mph - N/A   Mostly Cloudy
2:00 AM 51 °F 39 °F 53% 30.00 in 6 mi WSW 9.2 mph - -   Mostly Cloudy
2:20 AM 51.8 °F 39.2 °F 62% 29.98 in 6.2 mi WSW 6.9 mph - N/A   Mostly Cloudy
3:20 AM 51.8 °F 39.2 °F 62% 29.98 in 6.2 mi WSW 5.8 mph - N/A   Mostly Cloudy
3:50 AM 51.8 °F 39.2 °F 62% 29.98 in 6.2 mi West 4.6 mph - N/A   Mostly Cloudy
4:50 AM 51.8 °F 39.2 °F 62% 29.98 in 6.2 mi Calm Calm - N/A   Mostly Cloudy
5:20 AM 51.8 °F 39.2 °F 62% 29.98 in 6.2 mi Calm Calm - N/A   Mostly Cloudy
5:50 AM 50.0 °F 41.0 °F 71% 29.98 in 6.2 mi West 4.6 mph - N/A   Scattered Clouds
6:20 AM 50.0 °F 41.0 °F 71% 29.98 in 6.2 mi WNW 4.6 mph - N/A   Scattered Clouds
6:50 AM 48.2 °F 41.0 °F 76% 29.98 in 6.2 mi WNW 4.6 mph - N/A   Scattered Clouds
7:20 AM 46.4 °F 41.0 °F 81% 29.98 in 6.2 mi Calm Calm - N/A   Mostly Cloudy
7:50 AM 48.2 °F 41.0 °F 76% 29.98 in 6.2 mi Calm Calm - N/A   Mostly Cloudy
8:00 AM 48 °F 41 °F 68% 30.00 in 6 mi Calm Calm - -   Partly Cloudy
8:20 AM 48.2 °F 41.0 °F 76% 29.98 in 6.2 mi Calm Calm - N/A   Mostly Cloudy
8:50 AM 48.2 °F 41.0 °F 76% 29.98 in 6.2 mi Calm Calm - N/A   Mostly Cloudy
9:20 AM 50.0 °F 39.2 °F 66% 29.98 in 6.2 mi Calm Calm - N/A   Mostly Cloudy
9:50 AM 50.0 °F 42.8 °F 76% 29.98 in 6.2 mi Calm Calm - N/A   Mostly Cloudy
10:20 AM 50.0 °F 42.8 °F 76% 30.01 in 6.2 mi NW 4.6 mph - N/A   Mostly Cloudy
10:50 AM 51.8 °F 44.6 °F 76% 30.01 in 6.2 mi West 9.2 mph - N/A   Mostly Cloudy
11:20 AM 51.8 °F 44.6 °F 76% 30.01 in 6.2 mi West 11.5 mph - N/A   Mostly Cloudy
11:50 AM 51.8 °F 44.6 °F 76% 30.01 in 6.2 mi West 10.4 mph - N/A   Mostly Cloudy
12:20 PM 51.8 °F 44.6 °F 76% 30.01 in 6.2 mi West 11.5 mph - N/A   Mostly Cloudy
12:50 PM 50.0 °F 46.4 °F 87% 30.01 in 3.7 mi NNW 6.9 mph - N/A Rain Light Rain
1:20 PM 50.0 °F 46.4 °F 87% 30.01 in 6.2 mi Calm Calm - N/A Rain Light Rain
1:50 PM 50.0 °F 46.4 °F 87% 29.98 in 4.3 mi SE 5.8 mph - N/A Rain Light Rain
2:00 PM 50 °F 47 °F 85% 30.00 in 4 mi SE 5.8 mph - - Rain Light Rain
2:20 PM 50.0 °F 46.4 °F 87% 29.98 in 6.2 mi SSW 5.8 mph - N/A   Mostly Cloudy
2:50 PM 51.8 °F 46.4 °F 82% 29.98 in 5.6 mi North 13.8 mph - N/A Rain Light Rain
3:20 PM 51.8 °F 46.4 °F 82% 29.98 in 5.6 mi WNW 5.8 mph - N/A Rain Light Rain
3:50 PM 51.8 °F 42.8 °F 71% 29.98 in 5.0 mi West 4.6 mph - N/A Rain Light Rain
4:20 PM 51.8 °F 42.8 °F 71% 29.98 in 5.0 mi West 4.6 mph - N/A Rain Light Rain
4:50 PM 50.0 °F 48.2 °F 94% 29.98 in 3.7 mi Calm Calm - N/A Rain Rain
5:20 PM 50.0 °F 48.2 °F 94% 29.98 in 3.7 mi Calm Calm - N/A Rain Rain
5:50 PM 50.0 °F 48.2 °F 94% 29.98 in 5.0 mi SW 8.1 mph - N/A Rain Light Rain
6:20 PM 50.0 °F 48.2 °F 94% 29.98 in 5.0 mi SW 8.1 mph - N/A   Overcast
6:50 PM 50.0 °F 48.2 °F 94% 29.98 in 5.0 mi SW 6.9 mph - N/A Rain Light Rain
7:20 PM 50.0 °F 48.2 °F 94% 29.98 in 5.0 mi SW 6.9 mph - N/A Rain Light Rain
7:50 PM 48.2 °F 48.2 °F 100% 30.01 in 5.0 mi SW 6.9 mph - N/A Rain Light Rain
8:00 PM 49 °F 47 °F 92% 30.03 in 5 mi SW 6.9 mph - - Rain Light Rain
8:20 PM 48.2 °F 48.2 °F 100% 30.01 in 5.0 mi SW 6.9 mph - N/A Rain Light Rain
8:50 PM 48.2 °F 46.4 °F 93% 30.01 in 5.0 mi Calm Calm - N/A Rain Light Rain
9:20 PM 48.2 °F 46.4 °F 93% 30.01 in 5.0 mi Calm Calm - N/A Rain Light Rain
9:50 PM 48.2 °F 48.2 °F 100% 30.04 in 4.3 mi SW 4.6 mph - N/A Rain Rain
10:20 PM 48.2 °F 48.2 °F 100% 30.04 in 4.3 mi SW 4.6 mph - N/A Rain Rain
10:50 PM 48.2 °F 42.8 °F 82% 30.04 in 4.3 mi NNE 11.5 mph - N/A Rain Rain
11:20 PM 48.2 °F 42.8 °F 82% 30.04 in 4.3 mi NNE 11.5 mph - N/A Rain Rain
11:50 PM 48.2 °F 44.6 °F 87% 30.06 in 5.6 mi North 6.9 mph - N/A Rain Light Rain